Wind_Speed
21 22 22 20 21 23 23 26 26 26 24 23 22 22 23 23 23 22 22 23 22 22 23 25 26 25 26 27 27 27 26 25 24 24 24 23 23 23 24 23 21 20 19 18 19 19 16 16 16 15 16 17 18 19 21 20 20 20 19 19 20 21 20 20 21 21 20 21 21 20 19 17 17 17 18 17 17 17 16 16 17 19 20 21 22
23 23 23 20 22 23 24 26 26 26 24 23 22 23 24 24 23 22 23 23 22 23 24 26 27 26 25 26 25 25 25 24 24 24 23 22 22 23 24 22 19 19 18 18 19 18 16 16 15 15 16 17 19 20 20 19 19 19 19 19 20 20 20 21 21 21 20 20 21 22 20 19 18 18 19 18 18 16 16 17 17 18 19 20 22
25 24 23 21 22 23 25 26 26 25 23 23 22 23 24 24 23 22 23 22 22 23 25 26 27 26 24 24 23 23 24 23 23 23 23 22 21 21 21 20 18 17 17 18 18 17 16 16 16 15 15 17 19 20 18 17 18 18 18 19 20 18 20 23 22 21 20 21 21 22 22 20 20 19 19 18 18 16 14 16 16 18 18 19 21
27 25 24 22 22 24 25 26 26 25 24 23 22 24 25 24 23 23 23 22 22 23 24 25 26 25 23 22 21 21 21 22 22 22 22 21 20 19 19 18 17 16 16 17 17 17 16 16 16 15 15 17 18 18 17 16 17 18 18 19 19 16 18 21 22 21 19 20 21 22 23 21 20 19 18 17 17 15 14 15 16 17 17 18 19
29 27 25 23 23 25 25 26 26 25 24 23 23 24 25 24 23 23 22 22 22 23 23 24 25 24 22 21 20 19 19 21 22 23 22 21 20 18 17 17 16 16 15 16 16 15 15 15 15 15 16 17 17 17 17 16 16 16 17 17 18 15 15 16 17 19 18 18 19 21 22 21 20 18 17 16 16 15 14 16 16 16 15 16 17
31 28 27 25 24 25 25 26 25 24 24 22 23 24 25 23 23 23 21 21 22 22 22 22 23 22 21 19 19 19 18 20 22 22 21 21 20 19 17 17 17 16 16 15 14 14 14 13 13 15 17 19 18 18 17 17 16 15 15 15 15 14 13 12 9 12 15 16 17 19 21 21 20 18 16 15 15 14 14 13 14 14 13 14 16
31 30 29 27 26 25 25 26 25 24 23 22 22 24 25 23 23 22 21 21 22 22 21 21 21 20 19 18 18 18 18 19 21 21 20 19 19 19 18 16 16 15 15 14 13 13 13 12 13 16 18 20 20 19 18 16 15 14 14 13 12 11 10 9 5 7 12 14 15 17 20 19 19 17 15 15 14 14 14 12 11 11 13 14 14
29 30 29 27 26 25 25 25 24 24 23 22 22 23 24 23 23 22 21 21 21 21 20 20 19 19 18 18 18 17 17 19 20 20 19 19 19 18 18 16 16 15 14 14 13 13 12 12 13 16 19 21 20 18 17 16 15 13 12 11 10 8 7 5 4 8 12 12 14 16 19 19 18 17 15 15 14 15 15 14 11 11 12 13 13
28 29 28 27 26 25 25 24 24 23 23 22 22 23 24 23 23 22 20 20 20 20 20 20 19 18 17 17 17 16 17 19 19 19 19 19 18 17 18 17 16 15 14 13 12 12 12 11 13 17 20 20 19 18 16 15 14 12 11 10 10 10 8 5 7 13 15 13 14 15 17 18 18 17 16 16 15 15 14 14 13 11 12 12 12
27 28 28 27 26 25 24 24 24 23 23 22 22 23 23 23 22 21 20 19 19 19 19 19 19 18 16 16 16 15 17 19 19 18 17 18 17 16 17 16 16 16 14 13 12 11 11 11 13 17 19 19 19 17 16 14 13 11 10 10 12 12 10 10 12 16 16 14 14 14 15 17 18 18 16 15 15 15 15 15 15 14 13 13 12
27 27 27 26 25 25 24 24 24 23 23 22 22 23 24 23 22 21 19 18 18 18 18 18 18 17 16 16 15 16 17 18 18 17 16 15 15 15 15 15 15 16 14 12 11 10 10 10 12 16 18 18 17 16 15 13 12 11 11 12 14 13 13 14 16 16 15 14 14 14 15 16 18 18 16 15 15 15 15 15 15 14 14 14 13
26 27 26 25 25 24 24 24 24 24 23 22 22 23 24 23 22 20 18 17 17 17 18 17 17 17 16 16 15 15 15 15 15 14 14 14 14 14 13 13 14 15 13 11 10 9 10 10 12 14 16 16 15 14 13 12 11 10 11 12 15 14 16 16 16 15 15 14 14 14 15 17 18 17 16 15 14 15 15 15 14 13 12 13 12
26 26 25 25 24 23 23 23 24 24 23 22 22 24 24 23 21 19 17 16 16 17 17 17 16 16 16 15 15 14 14 13 13 13 13 14 13 13 13 13 14 13 12 10 9 8 9 9 10 13 14 14 14 12 12 11 10 10 11 12 15 13 16 16 15 15 15 14 14 13 14 16 18 17 16 15 15 15 15 14 13 13 13 13 12
26 25 25 25 24 23 22 22 23 24 23 22 22 24 24 23 21 18 17 16 16 17 16 16 16 16 15 15 15 14 14 13 13 13 13 13 13 13 13 13 13 13 11 10 9 8 8 7 8 12 13 13 13 11 11 10 10 9 10 11 14 14 16 15 14 14 15 15 14 13 14 16 17 17 16 15 15 15 15 14 14 14 13 13 13
26 25 25 25 23 22 22 23 23 24 23 22 23 25 24 22 20 17 16 15 15 16 15 15 15 15 15 15 15 14 14 13 13 13 13 13 13 14 13 13 12 12 11 10 9 8 7 7 7 9 10 10 10 10 10 10 9 9 9 10 13 13 16 15 14 14 15 15 14 13 13 14 14 14 15 15 14 15 15 14 13 13 13 12 12
26 25 25 25 23 22 22 22 23 23 23 23 24 25 24 22 19 16 15 15 15 15 15 14 14 15 16 15 14 14 14 14 13 13 13 13 14 14 13 12 11 12 11 10 9 7 7 6 6 7 8 7 7 8 8 9 9 8 8 10 12 11 15 15 13 13 14 14 13 12 11 11 11 13 15 15 14 15 14 13 13 13 13 12 12
26 26 26 24 23 23 22 22 22 23 23 23 24 25 24 21 19 16 15 14 14 15 14 15 15 16 16 15 14 14 14 14 14 14 13 14 14 13 13 12 11 10 10 9 8 6 6 6 6 7 7 5 5 6 7 8 8 7 8 9 11 10 12 15 13 13 13 13 12 11 11 11 11 14 15 14 14 14 14 13 13 13 13 12 12
26 27 26 25 24 23 23 22 22 23 23 24 25 25 24 21 18 16 15 15 14 15 15 15 16 16 16 15 15 15 15 15 15 14 13 14 14 13 13 11 11 9 8 8 8 5 4 6 7 6 6 5 6 7 6 7 7 6 8 8 9 10 10 14 14 13 13 12 12 11 11 12 13 14 13 13 14 13 13 13 14 13 12 12 11
27 26 26 25 24 24 24 23 23 24 24 25 25 25 23 20 17 16 16 15 14 16 16 15 15 15 15 15 15 15 15 14 14 13 12 13 13 13 12 11 10 9 8 8 7 5 5 6 7 6 5 6 8 8 7 7 6 6 8 7 8 10 9 13 14 13 12 12 12 12 12 12 12 12 10 11 13 13 13 13 13 12 12 11 11
26 24 25 25 24 24 24 24 24 25 25 25 25 24 22 18 17 16 16 15 14 16 16 16 16 16 16 16 15 15 14 13 12 11 11 11 12 13 13 13 12 11 10 9 8 7 7 7 7 7 6 7 8 8 7 6 6 6 7 5 7 9 8 13 13 11 12 12 12 12 12 12 11 11 11 10 11 13 13 12 11 12 11 11 11
23 23 24 24 24 24 25 25 25 25 25 25 24 23 20 17 17 16 15 14 14 16 16 15 16 17 17 16 16 15 14 12 11 10 9 10 11 13 14 14 13 13 12 11 11 9 9 8 8 7 7 7 7 7 7 6 6 6 6 5 6 9 8 13 13 11 12 12 12 12 12 11 10 11 12 10 10 12 12 11 11 11 11 10 11
22 22 23 24 24 24 24 25 25 25 25 25 24 21 18 18 17 16 15 14 15 15 15 14 15 16 16 15 15 15 14 12 11 9 9 9 10 12 13 13 13 13 13 12 12 10 9 8 7 7 6 6 6 6 5 5 6 6 6 5 5 7 8 12 14 11 11 12 12 11 11 10 9 12 12 10 10 10 9 10 11 10 10 10 10
22 22 23 23 23 24 24 25 25 24 25 23 22 20 19 19 17 15 14 15 15 14 14 15 15 16 16 15 15 14 13 12 10 8 8 9 10 11 11 12 12 12 12 11 10 9 8 7 6 5 5 6 6 5 4 4 5 5 7 4 5 7 7 10 14 11 12 12 12 11 9 9 9 12 12 10 10 8 7 7 8 9 9 9 9
23 24 24 24 23 24 24 24 24 24 24 21 20 21 21 19 17 16 15 16 15 14 14 15 16 17 16 14 14 13 12 11 9 8 9 9 9 10 11 11 11 11 10 9 8 6 6 6 5 5 5 5 5 4 2 2 2 3 5 4 4 5 4 8 13 12 12 12 12 10 8 9 11 13 11 9 9 7 6 5 6 8 9 9 10
24 25 25 24 23 24 25 25 24 24 24 23 23 23 22 21 19 18 17 16 15 15 14 14 15 17 15 14 14 13 12 11 10 9 9 8 8 9 10 10 9 9 9 8 6 5 4 4 4 4 5 4 3 2 2 3 1 2 3 3 2 3 3 7 12 12 13 13 12 10 8 10 13 13 11 8 7 6 5 5 6 7 9 10 10
25 26 26 24 23 23 25 25 25 24 23 24 24 23 23 21 20 20 19 17 16 15 14 14 15 16 15 15 15 15 14 13 11 10 8 7 8 9 9 9 9 8 7 6 5 4 4 3 3 2 2 1 2 3 4 3 2 1 2 1 2 3 5 9 13 13 13 12 11 10 10 11 13 13 10 9 7 6 6 5 6 8 9 10 9
24 23 24 24 24 25 25 24 25 24 23 23 23 23 21 16 17 20 19 18 17 16 14 14 15 15 15 15 15 15 15 13 11 10 8 8 9 9 9 9 8 7 6 4 3 2 3 3 3 2 0 1 2 3 3 3 2 2 2 2 2 5 8 10 14 14 14 13 12 11 11 11 14 12 9 9 9 8 7 5 6 8 9 9 9
25 23 25 25 26 25 24 23 23 23 23 23 23 22 18 16 19 20 19 19 18 16 14 14 14 14 15 14 14 14 15 14 12 11 10 9 10 10 9 8 7 6 5 3 1 2 3 3 4 3 1 2 3 3 2 3 4 5 5 5 7 10 11 16 17 17 15 14 13 12 11 12 14 13 9 10 11 9 8 7 7 7 8 8 8
25 25 28 26 25 25 23 23 22 22 23 23 22 20 18 19 21 21 21 20 18 16 15 13 13 14 14 13 12 14 15 14 13 12 11 10 9 9 8 7 6 6 5 3 2 1 3 3 3 3 3 3 3 3 3 3 6 8 9 9 12 13 14 18 18 17 15 13 13 13 12 11 13 14 12 11 12 10 8 8 8 7 6 7 8
23 22 25 26 25 25 25 24 23 23 23 23 23 21 20 22 22 22 22 20 18 17 15 14 13 13 13 12 12 12 13 14 14 13 12 11 9 8 8 8 7 7 6 4 3 1 2 1 3 4 4 3 3 3 3 4 7 11 11 11 12 13 14 17 15 14 14 13 14 14 12 11 11 14 13 12 12 10 9 9 8 6 6 6 8
23 22 25 27 26 25 25 26 25 24 24 24 23 22 23 23 23 24 23 21 19 18 16 15 13 13 13 12 11 11 12 14 14 14 13 11 10 9 9 8 8 7 6 4 3 2 1 1 2 4 5 4 5 5 5 5 8 12 12 11 10 11 13 14 12 11 12 12 14 14 13 12 11 12 14 13 12 10 10 9 7 5 6 7 8
24 24 25 26 26 24 24 26 25 24 25 25 22 22 23 23 24 25 23 21 20 18 17 15 14 14 12 11 11 12 12 14 14 13 12 10 9 10 9 8 7 6 5 4 4 3 1 2 2 4 5 4 5 7 7 6 9 12 12 9 9 10 10 12 11 10 11 11 14 15 14 14 12 11 13 13 10 10 11 9 8 6 6 7 8
22 22 21 23 24 23 23 24 25 24 25 25 23 23 23 22 24 24 20 19 18 16 16 15 15 15 12 11 11 12 12 13 13 11 10 9 9 9 9 8 7 6 5 5 4 4 3 2 2 4 5 4 5 7 7 8 11 12 10 8 7 9 9 10 10 10 10 11 15 16 16 15 13 12 13 12 10 10 10 9 8 7 7 8 8
19 21 21 22 23 23 23 23 24 23 23 24 24 23 22 22 22 21 18 17 17 16 15 16 16 15 13 13 13 13 12 12 12 11 10 9 9 9 9 8 7 6 6 6 5 3 3 3 3 4 6 6 7 7 7 10 12 10 9 7 6 8 8 8 8 9 9 11 14 16 16 15 14 13 12 12 11 10 9 8 9 8 8 8 7
20 24 24 24 24 24 24 24 25 25 24 25 24 24 23 22 21 19 18 17 17 17 16 16 16 15 15 15 15 14 13 12 12 11 9 10 10 9 8 7 6 6 6 6 5 4 4 3 4 5 6 7 8 9 9 11 11 10 9 7 6 6 6 6 8 8 7 11 15 16 16 15 14 13 12 11 12 10 8 8 8 8 8 6 5
26 26 27 27 28 27 26 26 27 26 26 26 25 25 24 22 20 20 19 17 18 19 17 17 17 17 17 17 15 14 14 13 11 10 10 11 10 9 8 7 6 6 7 8 7 6 5 4 4 5 6 8 9 10 10 11 11 10 9 8 7 6 6 7 8 7 7 11 16 16 15 15 13 13 12 12 12 10 8 8 7 7 8 6 5
30 30 29 29 30 29 28 29 29 27 27 28 27 25 24 22 20 20 19 17 19 20 18 18 19 18 17 17 15 14 13 12 12 10 10 10 9 8 8 7 7 8 8 9 8 7 5 4 5 5 6 8 9 10 10 10 10 9 9 8 8 8 8 7 7 6 7 12 16 16 15 14 13 12 12 12 12 10 10 10 7 7 8 6 6
32 32 30 30 30 29 29 30 29 28 28 28 27 25 23 21 20 19 18 17 18 19 18 18 19 17 16 16 14 14 13 12 11 10 9 9 8 8 9 8 9 9 9 9 8 7 5 4 6 6 7 9 9 10 10 9 9 9 8 9 8 8 7 7 7 7 8 11 14 15 15 14 13 12 11 11 11 11 11 11 9 8 8 7 7
32 32 31 31 31 30 30 30 30 29 28 27 26 25 23 22 21 19 18 17 18 19 18 17 18 17 16 16 15 14 12 11 9 9 9 9 8 8 9 8 9 9 9 8 7 6 5 5 6 6 7 8 9 10 10 9 9 8 7 8 8 6 6 6 7 7 7 10 12 13 14 14 13 11 11 10 10 11 11 11 10 10 10 9 8
33 32 32 32 33 31 29 30 31 31 29 29 28 26 25 23 22 21 20 19 19 18 17 16 17 17 17 17 15 13 11 9 8 8 8 7 7 8 7 7 7 8 8 7 6 5 5 5 6 6 7 9 9 10 8 7 8 9 9 10 8 7 7 7 7 6 6 7 8 9 12 14 13 11 11 10 10 10 10 10 11 11 10 9 8
32 34 33 33 34 32 29 31 32 32 32 32 31 29 27 25 24 23 22 20 19 19 18 17 17 18 17 16 14 11 10 9 8 7 6 7 7 7 7 6 7 7 7 6 5 5 6 6 6 6 7 10 10 10 9 8 8 8 9 11 10 10 10 10 8 6 5 5 5 6 9 11 12 11 11 10 9 10 9 9 9 9 9 7 8
31 34 34 34 34 32 31 32 33 33 32 31 31 30 28 27 25 23 22 20 19 20 19 18 17 17 16 14 12 11 9 8 8 7 7 7 7 8 8 7 7 7 7 7 5 6 7 6 6 7 8 10 10 11 12 8 6 7 8 9 9 10 11 12 12 10 7 5 4 5 6 7 9 10 11 11 10 10 9 8 8 8 8 7 7
30 31 30 32 32 31 31 32 32 32 31 30 30 28 26 25 23 22 22 21 19 19 19 18 17 16 14 12 12 11 10 9 9 8 9 9 9 10 10 9 10 9 8 8 7 6 7 7 6 7 9 11 10 10 10 7 9 10 9 5 3 5 7 10 12 12 9 8 6 5 6 6 7 9 10 9 9 9 9 9 8 8 8 7 7
26 26 25 27 29 29 29 30 31 30 30 29 27 25 24 23 22 22 22 21 19 19 19 17 16 15 14 13 13 13 13 13 11 11 11 11 11 11 11 10 10 9 8 7 7 7 7 6 6 6 9 12 11 8 7 10 14 12 6 3 2 2 2 4 9 11 9 8 7 6 7 8 7 7 7 6 6 7 9 8 8 9 9 8 8
23 22 21 23 25 26 28 30 31 30 29 27 25 25 25 25 24 23 21 20 19 19 19 17 15 15 15 15 16 16 15 15 14 13 12 10 11 11 11 10 9 9 8 7 8 7 6 6 6 5 7 10 11 9 8 12 14 10 6 5 4 2 1 4 6 8 8 8 7 6 7 7 8 6 5 5 4 5 6 6 6 7 7 7 9
20 19 20 21 23 24 26 29 29 29 28 27 26 27 27 28 28 25 23 21 20 20 20 19 16 15 15 17 17 16 15 14 13 12 10 10 10 10 10 10 10 11 11 10 10 9 8 6 5 5 6 8 10 12 11 12 11 8 9 8 3 3 8 8 4 3 6 9 7 6 7 7 7 6 6 5 4 4 3 3 2 2 2 4 6
18 18 19 20 21 22 24 26 27 27 27 25 25 26 27 28 28 26 25 25 23 21 21 19 16 15 14 16 17 15 14 14 12 11 10 9 9 10 10 10 10 11 11 11 11 10 9 6 5 5 7 8 11 13 13 12 10 8 9 8 7 8 16 11 5 4 3 5 7 6 7 9 9 7 6 5 5 4 4 3 4 4 3 2 1
19 20 20 20 20 20 22 23 24 25 24 23 23 24 27 28 27 26 26 25 24 23 22 20 16 15 14 15 17 16 15 14 14 12 10 9 9 11 12 12 12 12 11 10 10 9 9 8 7 7 8 9 10 12 14 12 12 10 8 6 5 12 14 9 11 13 5 2 4 4 6 9 10 8 6 6 6 6 6 6 6 5 5 3 3
20 22 21 20 20 20 21 21 22 23 21 21 21 23 27 29 28 27 25 24 24 24 23 20 18 18 18 18 19 19 17 15 15 13 10 9 10 12 13 13 12 12 11 10 10 10 11 10 10 11 11 10 9 11 12 11 11 12 10 8 9 13 11 8 15 16 8 5 3 1 5 9 9 7 7 8 8 8 8 8 8 8 8 7 6
19 22 22 20 20 20 21 22 22 22 21 21 23 25 29 30 28 28 26 25 26 26 23 21 21 22 22 22 21 20 17 16 14 13 11 10 13 15 14 13 11 11 12 12 12 12 13 13 12 12 12 12 11 10 10 10 10 10 10 11 11 13 10 8 12 14 9 5 4 4 7 8 8 7 7 10 11 9 8 8 9 10 10 10 10
18 20 21 20 19 20 21 22 22 22 22 23 25 28 30 30 29 28 28 28 28 27 25 24 23 22 22 22 21 19 17 15 14 14 13 14 17 17 16 14 13 13 14 13 13 13 13 13 13 13 13 13 13 11 10 10 10 9 9 11 13 14 11 8 12 14 10 6 6 6 7 10 10 9 10 12 12 11 10 10 11 12 12 11 11
Wind_Direction
159 155 155 158 154 148 145 146 147 147 143 140 136 134 135 134 134 130 126 121 120 120 122 126 125 122 122 122 120 118 116 114 111 108 107 105 103 101 103 106 108 105 103 104 104 99 99 102 101 102 100 97 95 97 99 99 97 96 96 96 96 93 91 90 86 82 80 80 75 74 77 79 82 85 92 95 84 80 85 81 73 75 76 77 80
158 153 155 159 155 148 145 146 148 146 142 139 136 135 136 136 135 130 126 120 118 119 121 126 125 123 121 120 118 116 114 112 110 107 106 105 104 102 105 107 107 104 100 102 103 101 102 102 101 102 101 100 100 101 101 99 98 98 98 98 98 92 89 89 86 82 81 80 77 77 77 78 84 89 95 92 83 81 82 80 75 74 74 75 79
150 151 156 159 156 149 147 148 148 145 141 140 137 138 138 138 136 131 126 121 119 119 122 125 126 124 121 119 116 115 114 112 111 109 108 108 108 107 107 107 106 102 97 101 105 104 104 102 101 99 99 102 104 105 104 101 102 102 100 101 102 94 90 89 85 81 81 81 78 81 82 80 85 90 95 92 85 82 79 78 76 74 73 74 75
149 150 155 159 157 151 149 150 148 144 141 140 140 140 140 140 137 133 127 123 122 121 124 126 127 126 124 120 116 116 115 114 114 113 111 109 110 109 109 108 108 105 99 102 106 108 106 105 105 102 102 105 106 106 107 106 106 106 104 105 106 101 96 92 81 75 79 79 75 81 87 84 84 90 94 93 90 84 76 76 75 74 75 76 75
149 150 155 158 157 152 151 150 147 144 142 142 142 142 142 141 138 135 130 127 126 124 126 128 129 128 126 122 118 117 116 117 116 116 116 114 112 111 111 110 109 108 105 103 104 107 106 106 106 105 107 109 109 111 114 114 111 108 107 110 111 107 104 101 80 69 77 82 78 81 89 88 86 89 91 94 92 84 78 76 74 76 79 79 77
150 152 155 156 156 154 152 150 147 145 144 144 144 144 144 143 141 137 133 131 129 128 128 129 130 129 127 123 120 119 118 119 118 119 120 121 119 116 114 113 111 109 108 106 105 105 105 106 105 106 111 115 116 117 119 118 115 111 110 113 114 112 115 121 99 71 81 89 85 83 88 91 89 89 90 92 91 87 86 81 78 82 81 77 75
150 152 154 155 154 154 152 148 147 146 146 146 146 146 145 144 143 139 136 134 132 130 130 132 130 128 127 124 123 121 121 122 121 121 121 120 119 117 115 113 112 112 111 108 106 105 106 106 105 109 116 120 121 122 122 119 116 113 111 111 111 113 116 123 117 81 91 96 91 88 89 93 92 90 89 90 90 88 91 90 87 86 80 76 76
149 151 153 154 153 154 151 148 147 148 148 148 148 147 147 146 145 142 139 136 134 132 132 134 131 129 128 128 126 123 125 126 125 123 121 117 115 116 116 116 115 116 114 110 108 106 107 107 108 114 121 124 124 123 121 119 115 111 107 103 99 92 84 96 122 111 111 107 97 93 93 96 95 91 89 90 92 91 93 94 90 84 79 79 80
148 150 152 153 153 154 151 150 149 150 150 149 150 149 149 148 147 144 140 137 135 134 133 136 135 132 130 130 127 125 129 128 127 125 124 122 121 121 121 121 121 121 116 113 111 108 108 104 110 121 126 127 126 125 121 119 114 109 101 93 80 64 68 95 138 132 126 114 100 98 100 101 96 92 92 91 93 95 95 88 83 85 85 83 82
148 150 152 153 154 155 152 152 152 152 153 152 152 151 150 150 150 146 141 138 136 135 133 135 138 136 132 129 126 128 132 130 129 128 126 127 128 128 126 127 127 124 116 116 114 109 108 96 108 125 129 128 127 125 122 118 111 104 92 80 66 63 87 112 131 134 127 113 103 102 106 106 99 95 96 95 95 94 92 87 86 88 87 84 84
148 151 152 152 154 156 154 154 155 155 156 154 154 153 153 152 152 149 143 139 135 135 133 134 138 139 134 130 129 131 135 132 132 132 130 131 132 130 127 127 130 126 117 117 115 111 108 91 105 126 128 128 128 124 121 115 109 98 83 73 62 76 111 122 127 128 121 109 101 102 107 109 103 99 98 98 98 96 94 93 92 90 89 87 85
148 151 150 152 155 158 156 157 157 158 158 157 156 155 155 154 154 151 146 141 135 134 133 135 140 141 136 131 131 134 138 135 134 133 133 132 130 129 124 121 127 130 124 119 117 116 110 94 104 124 129 129 127 123 120 114 108 92 80 69 62 91 126 129 128 122 115 106 99 101 107 108 105 103 101 98 98 98 97 97 95 91 92 92 88
148 150 150 152 157 160 158 158 159 159 160 159 157 157 156 156 155 152 149 144 137 135 136 138 141 141 137 130 129 136 140 136 133 130 128 125 122 125 122 120 124 130 129 123 120 117 112 99 106 124 129 130 129 124 120 115 108 93 80 66 63 100 134 133 129 119 113 106 99 100 102 104 105 106 105 104 101 99 100 99 97 94 95 96 92
147 149 150 153 158 161 160 160 160 159 161 160 158 158 157 156 156 154 152 146 138 137 138 141 143 141 137 130 131 138 139 136 133 129 127 121 118 122 121 121 120 122 126 125 124 119 112 103 110 128 130 130 130 126 125 120 111 98 82 65 66 105 139 137 129 119 113 107 99 97 99 103 106 107 107 108 107 104 103 101 98 98 97 97 95
150 149 149 153 156 160 162 160 160 160 162 162 159 159 157 157 157 156 153 145 139 140 142 145 145 141 135 131 133 138 138 138 135 131 129 123 122 124 122 121 118 118 120 123 126 122 117 110 115 134 135 132 130 127 129 126 117 107 87 66 65 106 141 140 133 123 115 111 100 97 102 109 113 113 112 111 111 109 106 104 105 104 100 98 96
152 148 148 151 153 156 159 159 161 162 163 161 158 157 155 157 159 156 151 144 142 144 146 147 145 138 134 132 134 137 139 139 137 135 132 128 126 126 124 120 119 121 122 124 126 127 127 117 112 127 131 132 134 128 130 131 127 116 93 73 65 99 146 149 140 129 118 113 103 99 104 112 115 116 116 114 114 113 110 108 107 104 100 99 98
151 148 148 149 151 154 156 160 162 161 161 158 156 154 155 161 162 155 147 145 148 147 146 146 142 138 138 137 135 135 136 135 135 134 130 127 127 128 127 123 123 126 130 130 128 133 137 122 114 119 116 119 137 136 133 134 135 127 100 84 69 89 147 156 145 133 122 114 106 100 101 107 109 113 118 116 116 114 112 110 108 105 101 100 98
148 151 151 148 151 154 156 159 160 159 157 154 153 155 160 165 159 148 144 148 153 149 149 146 141 141 142 139 136 134 133 131 131 129 125 124 123 124 125 127 130 131 136 142 144 150 143 121 121 123 109 113 134 138 137 135 137 137 114 92 70 80 135 157 147 135 124 117 111 101 100 106 110 115 118 118 118 115 114 113 111 110 106 101 99
146 151 150 149 151 154 157 159 159 156 154 151 152 159 166 164 151 145 146 153 158 154 153 147 142 145 146 139 135 134 132 130 128 124 123 123 118 115 115 118 122 124 127 136 148 159 146 127 130 131 114 114 126 126 130 136 136 141 128 97 65 73 121 154 149 139 129 122 113 102 105 111 115 118 118 120 122 120 117 115 114 114 110 106 103
145 149 148 150 152 155 159 159 157 154 152 151 154 162 165 155 144 146 149 156 163 161 157 150 150 151 152 146 139 137 133 131 128 123 123 120 111 105 102 103 105 107 109 114 120 128 133 128 131 131 121 117 120 119 121 130 130 139 138 98 62 65 111 156 153 144 134 125 116 106 113 119 119 121 122 125 123 120 118 118 119 117 115 112 107
143 147 148 151 154 158 159 156 154 151 151 153 157 162 159 149 145 149 154 160 166 167 162 159 162 158 157 154 149 145 138 135 130 126 126 119 107 100 98 100 101 102 103 106 110 115 119 121 124 126 127 127 125 126 121 122 122 136 143 103 70 61 96 155 156 146 138 127 122 115 122 128 126 126 128 126 118 117 118 121 121 117 118 116 112
143 146 150 154 156 159 157 153 151 152 155 155 158 157 154 150 150 154 158 165 170 171 168 174 175 164 162 161 158 150 141 138 135 136 133 123 111 101 100 103 103 103 103 106 110 113 114 114 119 121 127 131 131 131 121 121 124 137 147 111 87 74 90 149 156 149 142 130 128 125 130 135 131 130 128 124 119 119 116 120 125 126 129 123 117
143 146 152 157 160 159 156 152 151 156 156 154 155 153 154 153 154 159 164 171 177 178 177 186 184 170 166 166 163 153 144 140 137 143 137 125 116 107 106 107 106 105 105 107 108 109 112 115 118 121 129 140 141 136 120 119 123 135 146 113 95 96 94 147 159 152 142 134 132 132 135 134 129 129 126 124 122 122 116 117 129 132 131 124 117
148 149 154 161 163 159 154 153 157 161 159 156 154 153 154 154 159 164 171 179 182 184 183 188 184 175 172 170 167 159 151 144 142 149 140 132 125 120 116 111 110 109 108 107 108 110 115 120 119 126 136 144 146 138 113 97 109 126 138 107 92 107 97 152 165 156 144 139 136 135 136 129 128 129 128 129 124 123 125 124 129 128 125 120 113
149 148 154 160 160 157 155 157 163 164 163 163 159 156 156 160 166 169 180 187 185 184 184 185 181 178 178 174 174 168 161 157 153 151 142 139 135 131 121 114 113 109 110 108 109 110 102 100 99 122 136 137 130 103 50 36 55 89 126 112 66 90 108 157 167 159 147 142 140 140 138 131 131 133 135 138 133 130 131 122 123 127 126 123 118
145 144 151 155 156 159 162 164 165 168 171 170 166 163 162 169 174 175 186 191 187 183 182 184 179 181 180 174 175 171 167 165 157 149 147 148 139 131 120 117 118 112 118 117 114 98 67 69 64 98 134 119 66 47 29 26 27 56 107 97 31 90 121 153 167 160 149 144 143 142 139 134 134 139 146 147 140 139 133 119 119 123 124 125 124
132 133 144 152 162 167 168 167 165 169 172 170 167 163 163 178 182 179 188 191 187 181 181 185 178 179 179 173 174 171 169 166 157 152 153 149 137 131 127 127 128 128 139 137 118 70 30 23 15 6 54 51 52 41 28 33 31 58 56 37 91 125 133 154 163 156 147 145 146 147 146 140 139 151 163 154 144 142 138 129 123 114 112 123 128
123 138 153 162 170 169 166 164 162 163 163 163 163 161 167 182 178 179 189 190 186 181 182 188 179 175 177 175 173 171 171 168 162 160 158 150 142 140 140 140 140 147 161 163 139 31 355 345 0 6 92 80 65 47 46 67 53 62 56 63 122 144 150 155 155 151 150 153 158 160 158 148 146 159 169 155 150 149 145 141 135 116 101 115 127
133 156 163 164 169 168 164 162 161 161 162 163 162 166 176 178 176 182 189 190 188 183 186 194 184 177 179 178 173 172 174 172 168 167 166 160 154 152 155 161 165 173 182 191 209 333 341 353 28 40 91 88 70 52 54 86 65 66 75 89 126 151 161 161 160 163 169 173 169 162 161 155 150 158 164 158 156 155 151 149 147 131 107 115 127
150 161 163 165 171 173 170 166 163 161 163 165 167 175 180 179 182 185 188 191 190 188 191 195 191 183 181 178 176 176 175 176 174 172 174 171 168 169 173 181 187 193 200 202 200 249 338 25 54 46 79 90 69 59 64 101 73 70 90 100 124 152 166 169 176 181 179 175 167 161 166 166 155 157 166 167 163 158 152 156 159 145 128 127 130
159 161 169 173 175 177 174 171 164 159 162 166 169 176 178 181 183 181 186 190 190 193 194 194 193 186 184 180 179 179 179 183 182 179 179 180 183 187 187 190 197 203 211 214 215 243 322 63 54 47 78 89 68 68 80 107 82 75 93 104 123 151 168 173 181 184 178 176 171 169 173 174 165 159 167 173 170 163 151 158 172 159 146 136 129
166 166 171 169 173 178 178 175 166 160 165 169 169 172 175 179 178 179 185 186 189 196 193 192 190 185 188 186 183 182 182 188 190 188 185 186 194 200 199 199 207 211 211 211 218 225 197 77 75 65 77 87 74 74 83 97 90 85 92 105 130 153 170 176 181 183 184 187 180 175 176 176 173 163 167 178 180 169 154 156 171 169 160 149 137
169 165 164 162 170 178 180 176 168 166 170 172 173 173 174 174 175 179 182 184 188 192 188 187 185 185 192 193 191 184 183 192 195 191 187 187 195 198 198 200 207 212 202 195 198 199 176 122 108 86 81 86 78 80 90 96 94 93 96 110 143 157 168 177 180 181 185 189 181 178 178 179 180 171 170 183 188 175 162 156 162 176 186 168 151
168 159 157 159 165 175 180 177 172 173 171 172 173 172 172 171 174 176 176 181 184 184 186 185 182 185 192 198 200 190 188 200 198 189 185 184 184 185 192 198 200 201 191 185 184 173 151 134 124 105 93 90 84 85 94 99 99 103 108 124 152 158 170 177 175 178 185 186 181 179 179 181 185 180 178 184 190 186 178 167 157 174 197 182 167
166 156 157 158 160 171 176 174 176 176 170 170 171 169 170 171 173 175 175 179 182 185 189 188 185 185 189 197 203 198 195 201 195 188 186 184 183 182 187 190 190 190 183 178 181 182 171 146 125 114 103 94 90 93 97 103 110 117 123 130 139 144 166 170 168 177 181 181 180 180 183 186 187 186 184 183 189 195 194 185 168 169 187 187 180
166 161 161 160 162 168 170 171 175 175 170 169 169 167 168 170 173 176 177 181 186 189 190 189 187 185 189 196 200 198 195 196 192 186 185 185 182 179 177 176 177 179 175 172 176 185 184 157 131 123 114 98 91 100 108 111 117 128 134 136 135 142 153 153 165 174 170 177 181 182 185 189 192 191 190 186 189 198 201 199 185 170 178 175 164
169 166 164 163 163 165 169 172 173 172 170 168 170 168 167 170 175 177 179 182 184 187 189 188 186 186 192 194 192 191 190 188 184 176 173 174 170 164 162 162 166 169 169 168 169 171 169 160 151 138 117 102 95 106 117 122 128 135 142 140 134 142 149 156 170 166 161 175 180 183 186 190 193 194 195 194 194 197 199 205 204 180 181 177 167
170 169 167 165 162 164 169 171 172 172 169 168 169 167 167 171 173 176 179 179 181 186 189 188 186 187 189 188 182 179 177 173 171 168 163 162 160 157 158 157 159 162 165 165 165 160 150 154 158 143 121 113 107 107 117 132 140 140 142 135 125 133 151 164 165 152 157 174 180 185 187 191 193 191 193 198 200 197 196 202 207 195 188 189 182
170 169 167 164 163 165 167 168 170 170 168 167 167 168 170 171 171 174 177 181 183 183 184 186 185 182 180 176 167 161 161 161 165 169 163 159 158 158 158 156 153 158 163 165 165 155 139 140 146 143 136 128 115 112 120 130 139 142 137 125 115 121 141 153 154 145 152 167 177 188 191 193 195 191 189 194 198 197 199 201 205 204 197 197 194
170 168 165 164 164 164 164 166 167 168 167 167 168 170 170 171 174 177 180 185 183 177 175 176 172 170 168 161 153 148 149 155 164 169 163 156 156 156 155 152 149 154 163 167 165 153 148 147 142 143 145 140 126 118 129 141 143 139 120 111 108 95 100 116 132 139 146 158 172 188 193 194 196 195 191 191 195 196 200 202 203 206 204 207 205
169 168 166 165 165 165 164 164 166 168 169 169 171 171 170 171 174 177 180 180 177 172 168 164 160 160 159 152 147 145 147 154 158 157 153 151 156 154 151 151 147 151 165 172 169 164 165 163 154 150 146 147 135 122 134 146 143 130 104 96 89 78 83 92 98 104 120 141 163 185 190 193 194 198 197 191 191 198 202 202 201 204 204 204 201
169 169 168 167 168 169 167 166 167 169 171 172 172 173 173 173 171 171 171 169 168 165 158 152 150 151 149 146 145 143 144 151 149 145 146 151 157 154 147 146 145 150 159 161 161 164 165 165 165 161 154 151 141 134 140 142 143 134 110 91 75 72 79 80 81 83 92 111 140 168 176 183 186 197 204 197 191 199 206 206 201 202 201 198 197
168 169 169 166 168 171 170 168 169 170 172 174 174 173 172 171 168 165 162 159 157 151 144 139 138 138 137 137 139 138 140 145 147 145 143 143 145 144 139 136 137 140 143 145 148 153 157 162 162 160 160 152 141 144 150 160 165 144 118 106 84 75 71 66 69 73 80 90 101 133 148 158 175 194 204 202 197 197 206 209 206 211 211 202 205
166 168 167 164 167 172 172 170 170 171 172 173 173 169 164 162 161 160 159 156 149 140 133 128 125 125 127 131 132 134 134 133 134 134 131 128 128 130 130 130 131 130 133 143 151 148 144 152 149 145 159 156 146 148 154 163 165 153 123 106 109 98 74 65 66 63 76 89 84 100 131 153 171 186 193 197 202 201 210 215 216 225 225 209 209
168 167 166 163 165 171 172 172 172 172 170 168 167 164 159 156 154 153 155 153 148 144 137 132 129 127 130 133 132 132 131 128 129 128 126 125 127 130 128 129 130 125 124 136 148 145 131 134 137 135 157 162 154 149 150 158 163 170 174 147 112 97 174 152 103 65 70 87 89 96 118 153 173 175 175 181 192 201 214 220 219 231 239 224 215
167 166 166 165 167 171 173 174 174 172 170 166 163 163 160 156 154 152 150 146 146 150 149 144 143 142 139 137 136 136 135 133 133 131 131 134 138 139 135 134 136 130 124 127 133 134 127 126 133 137 151 166 162 153 154 164 167 179 191 191 227 211 162 154 135 70 78 87 91 102 111 132 153 157 158 161 160 159 172 189 187 187 222 233 219
164 165 166 168 171 172 175 178 177 175 172 167 167 169 166 162 158 154 150 146 146 151 154 152 153 156 154 151 149 147 144 142 141 141 145 150 148 148 146 143 142 138 132 128 128 129 129 126 134 145 145 157 165 158 156 164 165 169 187 211 252 197 158 148 150 143 118 90 89 102 119 123 129 136 135 131 125 116 115 124 127 128 136 173 195
161 167 168 171 173 174 178 181 180 178 174 169 173 176 173 167 161 156 153 153 151 150 153 155 157 158 162 166 162 155 150 148 148 148 150 157 155 151 149 142 139 140 135 128 128 132 132 125 125 136 141 152 162 157 154 161 163 164 177 192 203 174 157 147 151 143 125 105 100 96 116 115 115 118 116 111 106 103 106 113 121 121 119 113 100
160 170 173 173 175 176 180 184 184 181 174 172 175 175 172 167 162 159 156 155 153 150 153 155 152 146 148 157 160 156 152 150 152 149 144 154 160 154 149 142 135 136 133 129 129 132 133 128 123 127 134 142 150 150 150 157 162 164 171 166 158 162 155 136 142 138 125 135 138 150 127 109 102 103 112 119 114 112 112 110 108 104 99 98 96
160 171 176 176 176 178 183 186 186 182 174 173 171 169 171 169 164 161 157 156 156 155 156 153 148 143 143 149 152 153 153 151 152 148 139 147 155 150 145 142 137 133 133 135 136 134 135 131 126 126 128 131 135 142 145 146 153 160 167 165 157 155 147 131 139 138 131 127 122 147 143 123 112 102 107 119 117 112 104 97 96 98 102 102 103
159 170 178 179 179 182 187 186 185 181 174 173 170 168 170 170 167 164 161 160 160 160 159 153 151 149 146 148 149 148 149 149 149 144 134 136 143 140 135 133 132 129 130 134 137 138 136 133 129 126 124 123 125 133 140 143 149 155 163 170 168 163 160 160 158 151 143 134 129 132 132 126 119 112 118 117 110 102 93 91 93 95 102 105 106
Height
772 772 775 776 776 776 777 777 779 780 782 783 784 786 787 788 789 790 791 792 794 795 795 796 797 798 799 800 801 802 803 804 806 807 808 809 810 810 811 813 814 815 815 816 817 817 818 818 818 819 819 819 819 819 819 819 820 820 820 820 821 821 821 821 821 821 820 820 819 819 819 820 820 820 820 820 820 820 820 820 819 819 818 817 817
770 773 775 777 778 777 778 778 780 781 783 784 785 787 788 789 790 791 792 794 795 796 796 797 798 800 800 801 802 803 804 805 806 807 809 810 811 812 813 814 815 816 816 817 818 818 819 819 819 819 820 820 820 820 821 821 821 821 822 822 822 823 823 822 822 822 821 821 821 820 821 821 821 821 822 822 822 822 821 821 821 820 820 819 819
769 773 775 778 779 778 779 780 781 782 784 785 787 788 789 790 791 792 793 795 796 797 798 798 800 801 802 802 803 804 805 806 807 808 810 811 812 813 814 815 816 817 817 818 818 819 820 820 820 820 820 821 821 821 822 822 822 822 823 823 824 824 824 824 823 823 822 822 822 822 822 822 822 823 823 823 823 823 823 823 823 822 822 822 821
768 772 775 778 779 779 780 781 782 783 785 786 788 789 790 791 792 793 794 796 797 798 799 800 801 802 803 803 804 805 806 807 808 809 811 812 813 814 815 816 817 818 818 819 819 820 820 821 821 821 821 821 822 822 823 823 823 824 824 825 825 825 825 825 825 824 824 824 823 823 823 824 824 825 825 825 825 825 824 824 824 824 824 823 823
768 772 775 778 779 780 781 782 783 784 785 787 788 789 790 791 793 794 795 797 797 798 799 801 802 803 804 805 805 806 807 808 809 810 812 813 814 815 816 817 818 819 819 820 820 821 821 821 821 822 822 822 823 823 824 824 825 825 825 826 826 826 826 826 826 825 825 825 825 825 825 825 825 826 826 826 826 826 826 826 826 826 825 825 825
768 771 774 778 780 781 781 782 784 785 786 787 789 790 791 792 794 795 796 797 798 799 800 802 803 804 805 806 807 807 809 810 811 812 813 814 815 816 817 818 819 820 820 821 821 822 822 822 822 822 822 823 823 824 825 825 826 826 827 827 827 827 827 827 827 827 827 827 827 826 826 827 827 827 828 828 828 828 828 828 828 827 827 827 826
769 771 775 777 780 781 782 783 784 786 787 788 789 790 792 793 795 796 797 798 799 800 801 803 804 805 806 807 808 809 810 810 812 813 814 814 815 816 818 819 820 821 821 822 822 823 823 823 823 823 823 823 824 825 825 826 827 827 828 828 828 828 828 828 828 828 828 828 828 827 827 828 828 828 829 829 829 829 829 830 829 829 829 828 828
770 772 775 777 780 782 783 785 785 787 788 789 790 792 793 794 796 797 798 799 800 801 802 804 805 807 807 808 809 810 810 811 813 814 815 815 816 817 818 819 821 822 822 823 823 823 824 824 824 824 824 824 825 826 826 827 828 828 829 829 829 829 829 828 828 828 829 829 828 828 828 829 829 829 830 830 830 830 830 831 830 830 830 830 829
772 773 775 778 781 783 784 785 786 788 788 790 791 793 794 796 797 798 799 800 801 802 804 805 806 808 808 809 810 811 811 812 813 814 815 816 817 817 818 819 820 822 823 823 823 824 824 824 824 824 825 825 826 826 827 828 828 829 830 830 830 829 829 828 827 828 829 829 829 829 829 830 830 830 831 831 831 831 831 831 831 832 831 831 831
772 774 776 778 781 784 785 786 787 788 789 791 792 794 795 797 798 799 800 801 802 803 805 806 807 808 809 810 811 812 812 813 814 815 816 816 817 818 819 819 820 822 823 824 824 825 825 825 825 825 826 826 827 827 828 828 829 830 831 831 831 830 828 828 828 829 829 830 830 830 830 830 830 831 832 832 832 832 832 832 833 833 833 833 832
772 775 777 779 782 784 785 786 787 788 790 791 793 794 796 798 799 800 801 802 803 805 806 807 808 809 810 811 812 813 814 814 815 816 817 817 818 818 819 820 821 822 824 825 825 825 826 826 827 827 827 827 828 828 829 829 830 831 832 832 831 830 829 829 829 830 830 830 830 830 831 831 831 831 832 833 833 833 833 834 834 834 834 834 833
773 775 777 780 782 784 785 787 788 789 791 792 794 795 797 799 800 801 802 803 804 806 807 808 809 809 810 811 813 814 815 816 816 817 818 818 819 819 820 821 822 823 824 826 826 826 827 827 827 828 828 828 829 829 830 830 831 832 833 833 832 831 830 831 831 831 832 831 831 831 831 831 832 832 833 834 834 834 834 834 835 835 835 835 834
774 777 779 781 783 785 785 787 788 790 791 793 795 796 798 799 801 802 803 804 805 807 808 809 809 810 811 812 813 814 816 816 817 818 818 819 819 820 820 821 822 823 825 826 827 827 828 828 828 829 829 829 829 830 830 830 831 832 833 833 833 832 831 832 833 833 833 833 833 833 832 832 832 833 834 835 835 835 834 835 835 835 835 835 835
775 778 780 782 783 785 786 788 789 791 792 794 796 797 799 800 802 803 804 805 806 807 808 809 810 811 812 813 814 815 816 817 818 818 818 819 820 821 821 822 823 824 825 826 827 828 828 829 829 829 829 829 830 830 830 831 831 832 833 834 833 833 832 833 834 834 834 834 834 834 834 833 833 834 834 835 836 835 835 835 836 836 836 836 836
776 778 780 782 783 786 787 789 790 792 793 795 797 798 800 801 802 803 804 806 807 808 808 809 810 811 812 814 815 816 817 817 818 818 819 820 820 821 822 823 823 824 825 826 827 828 829 829 829 829 830 830 830 830 830 831 831 832 834 835 834 833 833 834 835 835 835 835 835 835 835 835 834 834 835 836 836 836 836 836 837 837 837 837 837
776 778 781 782 784 786 788 790 791 792 794 795 798 799 801 802 803 804 805 806 807 808 809 810 810 812 813 814 815 816 817 818 819 819 819 820 820 822 822 823 823 824 825 826 827 828 828 829 829 830 830 830 830 831 831 831 831 832 834 835 835 834 834 834 835 836 836 836 836 836 836 836 835 835 836 837 837 837 837 837 837 838 838 838 838
777 779 781 782 785 787 789 790 791 793 795 797 798 800 802 801 802 804 806 807 808 809 809 810 811 812 813 814 816 817 817 818 819 819 820 820 821 822 823 824 824 825 826 826 827 828 829 829 830 830 831 831 831 831 831 832 832 832 834 835 835 835 835 835 836 836 837 837 837 837 837 837 836 836 837 838 838 838 838 838 838 839 839 839 839
778 780 781 783 785 787 789 790 792 794 795 798 800 801 801 801 803 805 806 807 808 809 809 811 812 813 814 815 816 817 818 819 820 820 821 821 821 822 823 824 824 825 826 826 827 828 829 830 830 830 831 831 831 831 831 832 832 832 833 835 836 835 835 836 836 837 838 838 838 838 837 838 837 837 837 838 839 839 839 838 839 839 839 839 839
779 781 782 784 785 787 789 790 792 794 796 798 800 801 801 802 804 806 807 807 809 809 810 812 813 814 815 816 817 818 819 820 820 821 822 822 822 822 823 824 825 825 826 826 827 828 829 830 830 831 831 831 831 831 832 832 832 833 834 835 836 836 836 836 837 838 838 838 838 838 838 838 838 838 838 839 839 840 840 840 840 840 840 840 840
780 781 783 785 786 788 789 790 792 795 797 799 800 801 802 804 805 807 807 808 809 810 811 812 813 814 816 817 818 818 819 820 821 822 823 824 823 823 824 824 825 825 826 826 827 828 829 830 830 831 831 831 832 832 832 832 833 833 834 835 836 836 836 837 838 838 839 839 839 839 839 839 839 839 839 839 840 840 841 841 841 840 840 840 840
781 782 784 785 786 788 789 791 793 796 798 799 801 802 804 805 806 807 808 809 810 811 812 813 814 815 816 817 818 819 819 820 821 823 824 824 824 824 824 824 825 825 826 827 828 829 829 830 830 831 831 832 832 832 832 832 833 833 834 835 836 836 836 837 838 839 840 840 840 840 840 840 840 840 840 841 841 841 841 842 841 841 841 840 840
781 783 785 786 787 789 790 793 795 796 798 799 801 803 805 805 806 807 808 810 811 813 814 814 814 815 817 818 819 819 820 821 822 823 824 825 825 825 825 825 826 826 827 827 828 829 830 831 831 832 832 832 832 832 833 832 833 833 834 836 836 836 836 837 839 840 840 841 841 841 841 841 841 841 842 842 842 842 842 842 842 842 841 841 841
781 783 785 787 787 789 791 794 795 797 798 800 801 803 805 806 807 808 808 810 811 813 814 814 814 816 817 818 819 820 820 821 822 823 824 825 825 825 826 826 826 827 828 828 829 830 831 831 831 832 832 832 832 833 833 833 833 833 834 836 836 837 837 838 839 840 841 841 842 842 842 842 842 843 843 844 843 843 843 843 842 842 842 842 842
780 782 785 787 788 790 793 794 795 796 798 800 802 803 805 806 807 808 809 810 811 813 814 814 815 816 817 818 819 820 821 822 822 824 824 825 825 825 826 826 827 827 828 829 830 831 831 831 832 832 832 833 833 833 834 833 833 833 834 835 836 837 838 838 839 840 841 841 842 842 843 843 844 844 845 845 845 845 844 844 843 843 843 843 843
779 782 785 787 789 791 792 794 795 796 798 799 801 802 804 806 807 807 808 810 811 813 814 814 815 816 817 818 819 820 821 822 822 823 824 825 825 825 826 826 827 827 828 829 830 831 831 832 832 833 833 833 834 834 834 833 833 833 834 835 836 837 838 838 839 841 841 841 842 843 843 844 844 845 846 846 845 845 845 845 845 844 844 844 844
779 782 785 788 790 791 792 793 794 795 797 798 799 802 804 806 807 807 808 810 811 812 814 814 815 816 817 818 819 820 821 822 822 823 824 825 825 826 826 826 827 828 828 829 830 831 832 833 833 833 833 834 834 834 834 834 833 833 834 835 836 837 838 838 839 841 841 842 842 843 844 844 845 846 846 845 845 845 845 845 845 845 845 844 844
781 784 787 790 790 791 792 793 794 795 797 798 800 802 805 807 808 808 808 809 811 812 813 814 815 816 816 818 819 820 821 821 822 823 825 825 825 825 826 827 827 828 829 829 830 831 832 833 833 834 834 834 834 835 835 835 834 834 834 835 836 837 838 839 840 841 841 842 842 842 843 843 845 846 846 845 845 846 845 846 846 846 846 845 845
782 786 787 788 790 791 793 795 796 796 798 800 801 804 805 806 808 808 809 809 810 812 812 813 815 816 816 817 818 820 821 821 822 823 824 824 825 825 826 827 828 828 829 830 831 831 832 833 833 834 834 834 834 835 835 836 835 835 835 835 836 837 839 839 839 840 840 840 840 840 841 842 843 844 845 845 846 846 846 846 846 846 847 846 846
783 784 784 788 791 793 794 796 797 797 799 800 802 804 803 804 807 808 808 808 809 811 812 813 814 816 816 817 818 819 820 821 822 823 824 824 824 825 826 827 828 829 829 830 831 832 833 833 833 833 834 834 835 835 836 836 836 835 835 835 836 837 838 838 838 837 836 837 838 841 842 843 843 844 845 845 846 846 846 847 847 847 847 847 847
784 786 787 790 793 793 793 795 796 797 799 800 802 802 802 804 806 807 807 807 808 810 812 812 813 815 816 816 817 818 819 820 822 823 823 823 824 825 827 828 829 829 830 831 832 832 833 833 833 833 834 835 835 836 836 837 836 836 836 836 836 837 838 837 837 836 836 838 840 842 843 843 843 844 845 846 846 847 847 847 848 848 848 848 848
783 786 789 790 792 793 793 794 795 796 798 799 801 802 802 803 804 806 806 806 807 809 810 811 812 814 815 815 816 818 819 820 821 822 823 824 825 826 827 828 829 829 830 831 832 833 833 833 833 834 835 835 836 836 837 837 836 836 836 836 837 837 837 837 837 838 839 840 841 841 841 842 843 845 846 846 847 847 847 848 848 848 848 848 848
781 784 788 790 791 792 793 795 795 795 797 798 800 801 802 803 804 805 805 805 807 808 809 810 811 813 814 815 816 818 819 820 821 822 822 824 825 826 827 828 829 829 830 831 832 832 833 833 834 834 835 835 836 836 837 837 836 837 837 837 837 837 837 837 838 839 840 841 841 841 841 842 844 845 846 847 847 847 848 848 848 848 848 848 848
786 787 789 789 790 790 792 794 794 795 795 797 799 800 801 802 804 804 805 806 806 807 808 810 811 812 813 814 816 817 819 820 821 822 822 823 825 826 827 828 828 829 830 831 832 832 833 833 834 834 835 836 836 836 836 836 836 837 838 838 837 837 837 837 838 839 840 840 841 841 842 844 845 846 847 847 848 848 849 849 849 848 848 848 849
790 789 789 788 788 789 790 792 793 794 795 796 797 798 800 801 803 804 805 805 805 806 808 809 810 811 813 814 815 817 819 820 821 822 822 823 824 826 827 828 828 829 830 831 831 832 833 834 834 835 835 836 836 836 836 836 836 837 838 838 838 838 838 838 839 839 839 840 841 842 844 845 846 847 848 848 849 849 850 849 849 849 849 849 849
791 788 788 787 786 786 787 789 791 793 794 796 796 798 799 800 802 803 804 805 805 806 807 808 809 811 812 813 815 817 818 820 821 822 822 823 824 825 826 827 828 829 830 830 831 832 833 834 834 835 835 836 836 836 836 836 837 837 837 838 838 838 838 839 839 839 840 841 842 843 845 846 847 848 849 849 849 850 850 850 850 849 849 850 850
786 786 786 785 784 784 786 787 789 791 793 795 796 798 799 800 801 802 804 804 805 806 807 807 808 810 812 813 814 816 818 819 821 822 822 823 824 826 826 827 827 828 829 830 831 832 833 834 834 835 835 836 836 836 837 837 837 837 838 838 838 838 838 839 840 840 841 842 843 844 846 847 848 849 849 849 849 850 850 850 850 850 850 850 850
780 781 782 783 784 785 786 787 788 791 792 794 796 797 799 800 801 803 804 804 805 806 807 808 809 810 811 813 815 816 818 819 821 822 822 824 825 825 826 827 827 828 829 830 831 832 833 834 834 835 835 836 837 837 837 837 837 837 838 838 839 839 839 840 840 841 841 842 844 845 846 847 848 849 849 849 850 850 850 851 851 851 851 851 851
776 777 779 782 785 786 787 788 790 791 793 794 796 797 799 801 802 803 804 805 806 807 807 808 809 810 811 813 815 816 818 819 821 821 822 824 824 825 826 826 827 828 829 830 831 832 833 834 834 835 835 836 837 837 837 837 837 837 838 839 840 840 840 840 841 841 842 843 844 845 846 847 848 848 849 849 850 850 851 851 852 852 852 852 852
774 775 776 780 783 786 788 789 791 793 794 796 797 798 799 801 802 803 805 805 806 808 808 809 809 810 811 813 815 816 817 819 820 821 822 823 824 825 826 826 827 828 829 830 831 832 833 833 834 835 836 836 837 837 837 836 836 838 839 840 840 840 841 841 842 842 843 844 845 845 846 847 847 848 848 849 850 851 851 852 852 853 853 853 853
772 773 775 778 781 785 788 790 792 793 795 796 797 798 800 801 802 803 804 805 807 809 810 810 810 811 812 814 815 816 817 818 819 821 822 823 824 824 825 826 827 827 828 829 831 832 832 834 834 835 836 837 837 837 837 836 836 837 839 840 840 841 841 842 842 842 843 844 845 846 846 847 847 848 848 849 850 850 851 852 853 853 854 854 854
770 771 772 776 779 783 787 790 792 793 794 794 796 797 799 800 801 802 804 805 807 809 811 811 812 812 813 815 815 816 817 818 819 820 821 822 823 824 825 826 827 828 829 830 831 832 833 834 835 835 836 836 837 837 837 836 835 836 838 840 841 841 842 843 843 843 843 844 845 846 846 847 847 848 848 849 850 850 851 852 853 854 854 854 854
769 770 771 774 778 782 786 789 791 792 793 794 796 797 798 800 801 803 804 806 808 810 811 812 813 813 814 815 816 816 817 818 820 821 822 823 825 826 826 827 828 829 830 830 831 832 833 834 834 835 836 836 837 837 837 836 835 835 838 840 842 843 843 843 843 844 845 845 846 846 847 847 847 848 848 849 849 851 852 852 853 854 853 854 854
768 771 773 775 779 782 785 788 790 792 794 796 797 799 800 802 803 804 806 807 809 811 812 813 814 814 815 816 816 817 818 820 821 823 824 825 826 827 828 828 829 829 830 831 831 832 833 833 834 834 835 836 837 837 838 837 835 835 837 840 843 844 845 845 845 845 846 846 846 846 847 847 847 848 848 849 849 850 852 852 853 853 853 853 854
770 773 776 778 781 784 786 789 791 793 795 797 799 801 803 804 805 806 808 809 810 811 813 814 815 815 815 816 817 818 820 821 823 824 825 826 827 828 828 829 830 830 831 832 832 832 832 833 833 833 834 835 836 837 838 837 836 835 837 840 844 845 846 847 846 847 847 846 846 846 847 847 847 848 848 849 850 850 851 852 852 852 852 853 854
772 775 778 781 784 786 788 790 792 794 796 798 800 802 803 804 806 807 809 809 810 811 812 813 815 815 816 817 818 819 821 823 824 825 826 827 827 828 829 830 830 831 831 832 832 832 832 832 832 833 833 834 835 836 837 838 837 836 836 838 842 844 846 847 846 847 847 847 847 846 846 847 847 848 849 849 850 850 851 851 852 852 852 852 853
775 778 781 783 786 788 790 792 794 795 797 799 801 802 803 804 805 806 807 807 809 810 811 812 814 816 817 818 819 821 822 824 825 826 827 827 828 829 830 830 831 831 832 832 832 832 833 832 832 832 833 833 834 835 836 837 838 837 836 835 837 839 842 844 846 848 848 847 847 846 847 847 847 848 849 849 850 851 852 852 852 852 852 852 853
777 780 783 785 787 790 792 793 795 797 798 800 801 802 803 804 805 805 806 807 808 810 811 813 814 816 817 819 821 822 824 825 826 827 827 828 829 829 830 831 831 832 832 832 833 833 833 833 832 832 832 833 833 834 835 836 837 837 837 836 835 836 838 840 843 845 847 848 847 847 848 848 848 848 848 849 851 851 852 853 853 853 853 853 854
778 781 784 786 788 791 793 795 796 798 799 801 802 803 804 805 806 807 807 808 809 811 813 814 815 816 818 819 822 824 825 826 827 828 828 829 829 830 831 831 832 832 832 833 833 833 834 833 833 832 832 833 833 834 834 835 836 836 837 836 836 836 837 839 840 841 844 847 849 848 849 850 849 849 849 850 851 852 853 853 854 854 854 855 855
779 782 784 786 789 791 793 795 797 798 799 800 802 803 805 806 807 807 808 810 811 813 814 815 817 817 819 820 823 824 826 827 827 828 829 829 830 830 831 832 832 832 833 833 834 834 834 834 833 833 833 833 834 834 834 835 836 836 837 837 837 837 839 840 841 841 842 846 848 849 849 850 850 850 851 852 853 853 853 854 854 855 855 855 855
779 782 784 787 789 791 794 795 797 798 799 801 801 803 805 806 807 808 809 811 812 814 815 817 818 819 820 822 823 825 826 827 828 829 829 829 830 831 832 832 833 833 833 833 834 835 835 835 834 834 834 834 834 835 835 836 836 837 837 837 837 838 839 841 842 843 843 844 846 848 849 850 851 852 853 853 854 854 854 854 855 855 855 856 856
779 783 785 787 790 792 794 795 797 799 800 801 802 803 805 806 807 808 810 811 812 814 815 817 819 820 821 822 824 825 826 827 828 829 830 830 830 831 832 833 833 833 834 834 835 836 836 836 836 835 835 835 835 836 836 836 837 837 837 837 838 838 839 840 841 843 843 844 846 849 851 851 852 853 854 855 855 855 855 855 855 855 856 857 857